Regional Weather Roundup
Issued by NWS

Home | Current Version | Previous Version | Text Only | Print | Product List | Glossary Off
Versions: 1 2 3 4 5 6 7 8 9 10 11 12 13 14 15 16 17 18 19 20 21 22 23 24 25 26 27 28 29 30 31 32 33 34 35 36 37 38 39 40 41 42 43 44 45 46 47 48 49 50

000
ASUS43 KDTX 181510
RWRMI
MICHIGAN HOURLY REGIONAL WEATHER ROUNDUP
NATIONAL WEATHER SERVICE DETROIT/PONTIAC MI
1100 AM EDT WED OCT 18 2017

NOTE: "FAIR" INDICATES FEW OR NO CLOUDS BELOW 12,000 FEET WITH NO
SIGNIFICANT WEATHER AND/OR OBSTRUCTION TO VISIBILITY.

MIZ047>049-052>055-059>063-066>070-074>076-081>083-181600-
SOUTHEAST LOWER MICHIGAN

CITY           SKY/WX    TMP DP  RH WIND       PRES   REMARKS
ADRIAN         SUNNY     55  43  63 SW8       30.27S
ALMA           SUNNY     58  42  55 S10       30.18F
ANN ARBOR      SUNNY     57  45  64 VRB7      30.25R
BAD AXE        SUNNY     60  41  50 SW12      30.19S
CARO           SUNNY     61  41  47 S10       30.19S
DETROIT CITY   SUNNY     58  42  55 SW12      30.26S
DETROIT        SUNNY     58  44  60 SW9       30.27S
FLINT          SUNNY     60  42  51 SW10      30.22S
GROSSE ILE     SUNNY     58  43  57 SW9       30.26S
HILLSDALE      SUNNY     57  41  54 SW8G17    30.24R
HOWELL         SUNNY     59  43  55 S7        30.23S

CITY           SKY/WX    TMP DP  RH WIND       PRES   REMARKS
JACKSON        SUNNY     59  42  53 S15       30.23S
LAMBERTVILLE   SUNNY     60  43  53 SW6       30.27R
LANSING        SUNNY     60  41  49 SW12      30.21S
LAPEER         FAIR      60  42  51 SW12      30.22S
MASON          SUNNY     60  42  51 SW7       30.22S
MONROE         SUNNY     60  42  50 SW7       30.26S
MT. CLEMENS    SUNNY     62  44  52 SW9       30.24S
PONTIAC        SUNNY     58  43  57 VRB7      30.23S
PORT HOPE        N/A     60  42  51 SW9G18    30.15S
PORT HURON     SUNNY     61  43  51 SW5       30.24S
TRI CITIES     SUNNY     60  44  55 SW13      30.18F
MIDLAND        FAIR      59  44  55 S8        30.16S
TROY           SUNNY     57  42  57 S9        30.27S
SAGINAW HB     SUNNY     59  43  55 SW12      30.18S
$$
MIZ043>046-050>051-056>058-064>065-071>073-077>080-181600-
SOUTHWEST LOWER MICHIGAN

CITY           SKY/WX    TMP DP  RH WIND       PRES   REMARKS
BATTLE CREEK   SUNNY     58  43  57 SW13      30.22S
BENTON HARBOR  SUNNY     58  41  53 S10       30.19S
BIG RAPIDS     SUNNY     60  47  64 SW7       30.13F
COLDWATER      SUNNY     59  41  50 SW9       30.24R
FREMONT        FAIR      58  52  80 S12G17    30.13F
HOLLAND        SUNNY     59  45  59 S12       30.18S
GRAND RAPIDS   SUNNY     59  43  55 S15       30.18S
IONIA          FAIR      59  42  52 SW10      30.18F
KALAMAZOO      SUNNY     58  43  57 S8        30.22S
LUDINGTON      SUNNY     62  51  66 SW14G21   30.08F
MARSHALL       SUNNY     57  42  57 SW7       30.23R
MOUNT PLEASANT SUNNY     60  43  52 SW8       30.15F
MUSKEGON       SUNNY     62  52  69 S18G26    30.14F
SOUTH HAVEN    SUNNY     61  42  48 SW9G16    30.19S
$$
MIZ016>042-181600-
NORTHERN LOWER MICHIGAN

CITY           SKY/WX    TMP DP  RH WIND       PRES   REMARKS
ALPENA         SUNNY     61  49  64 S12       30.08F
BEAVER ISLAND  SUNNY     62  53  72 SW13G28   29.98F
BELLAIRE       SUNNY     61  47  61 S10       30.04F
CADILLAC       SUNNY     62  47  57 SW17      30.08F
CHARLEVOIX     SUNNY     61  49  63 S14G20    30.04F
FRANKFORT      SUNNY     63  51  65 S10G22    30.04F
GAYLORD        SUNNY     58  45  62 SW15      30.06F
GRAYLING       SUNNY     58  46  63 S7        30.09F
HARBOR SPRINGS SUNNY     61  47  59 SW12      30.01F
HOUGHTON LAKE  SUNNY     57  48  72 SW12      30.11F
MANISTEE       SUNNY     62  51  67 S10       30.07F
OSCODA         SUNNY     59  46  61 SW14G21   30.12F
PELLSTON       SUNNY     62  48  60 SW9G20    30.01F
ROGERS CITY    SUNNY     60  48  64 SW9G16    30.05F
TRAVERSE CITY  SUNNY     62  48  60 S10G20    30.04F
$$
MIZ007>008-015-181600-
EASTERN UPPER MICHIGAN

CITY           SKY/WX    TMP DP  RH WIND       PRES   REMARKS
KINROSS        SUNNY     60  50  69 S12       29.98F
MACKINAC ISLAN SUNNY     61  48  64 S12G20    29.99F
NEWBERRY       SUNNY     60  53  78 SW17G24   29.94S
S. S. MARIE    SUNNY     60  53  77 S12       29.97F
MUNISING         N/A     59  49  69 S10G21    29.87F
$$
MIZ004>006-011>014-085-181600-
CENTRAL UPPER MICHIGAN

CITY           SKY/WX    TMP DP  RH WIND       PRES   REMARKS
MANISTIQUE     SUNNY     60  52  76 S13G22    29.94F
ESCANABA       SUNNY     59  51  75 S18       29.93F
MENOMINEE      SUNNY     59  48  67 SW16      29.95F
SAWYER-GWINN   SUNNY     54  46  76 S15       29.88S
$$
MIZ001>003-009>011-084-181600-
WESTERN UPPER MICHIGAN

CITY           SKY/WX    TMP DP  RH WIND       PRES   REMARKS
IRON MOUNTAIN  SUNNY     56  44  64 S8        29.89S
HOUGHTON       SUNNY     59  45  59 S13       29.76F
COPPER HARBOR    N/A     60  45  57 SW14G23   29.74F
IRONWOOD       SUNNY     60  45  57 S17G25    29.77F
$$

ABBREVIATIONS USED IN REMARKS
   TC - TEMPERATURE IN CELSIUS
  WCI - WIND CHILL INDEX
   HX - HEAT INDEX
  VSB - VISIBILITY





USA.gov is the U.S. government's official web portal to all federal, state and local government web resources and services.